N1BSO Weather Reports


Display with metric or nautical units.
time (UTC)temp
F
wind
direction
speed
MPH
gust
MPH
rain 1hr
in
rain 24hr
in
rain mn
in
humidity
%
barometer
mb
20260505080059 49 275 1.0 5.0 0.00 0.00 0.00 89 1010.7
20260505074610 49 0 0.0 5.0 0.00 0.00 0.00 88 1010.7
20260505073100 49 202 1.0 3.0 0.00 0.00 0.00 88 1010.9
20260505071600 50 0 1.0 3.0 0.00 0.00 0.00 87 1010.8
20260505070055 50 0 0.0 2.0 0.00 0.00 0.00 86 1010.8
20260505064559 51 238 0.0 4.0 0.00 0.00 0.00 86 1010.9
20260505063058 51 232 1.0 3.0 0.00 0.00 0.00 85 1011.0
20260505061624 51 169 0.0 5.0 0.00 0.00 0.00 84 1010.9
20260505060100 51 256 1.0 4.0 0.00 0.00 0.00 83 1011.0
20260505054616 52 0 0.0 8.0 0.00 0.00 0.00 82 1011.0
20260505053057 52 304 2.0 11.0 0.00 0.00 0.00 82 1010.8
20260505051558 52 319 2.0 7.0 0.00 0.00 0.00 82 1010.9
20260505041555 53 292 2.0 8.0 0.00 0.00 0.00 79 1011.2
20260505040100 53 238 3.0 10.0 0.00 0.00 0.00 78 1011.0
20260505034557 53 194 2.0 8.0 0.00 0.00 0.00 78 1011.2
20260505033055 53 211 3.0 7.0 0.00 0.00 0.00 78 1011.0
20260505031601 53 267 2.0 9.0 0.00 0.00 0.00 77 1011.2
20260505030059 53 163 4.0 12.0 0.00 0.00 0.00 76 1011.4
20260505024608 53 65 3.0 9.0 0.00 0.00 0.00 76 1011.3
20260505023057 54 217 2.0 15.0 0.00 0.00 0.00 75 1011.3
20260505021612 54 213 2.0 11.0 0.00 0.00 0.00 75 1011.3
20260505020055 54 273 0.0 10.0 0.00 0.00 0.00 74 1011.3
20260505014555 55 15 2.0 12.0 0.00 0.00 0.00 73 1011.3
20260505013057 55 194 3.0 11.0 0.00 0.00 0.00 72 1011.1
20260505011558 55 178 3.0 11.0 0.00 0.00 0.00 71 1010.9
20260505010057 56 199 3.0 11.0 0.00 0.00 0.00 69 1010.7
20260505004557 56 54 3.0 14.0 0.00 0.00 0.00 67 1010.2
20260505003058 57 297 3.0 9.0 0.00 0.00 0.00 65 1009.9
20260505001557 57 193 4.0 9.0 0.00 0.00 0.00 61 1009.8
20260505000059 58 171 3.0 13.0 0.00 0.00 0.00 59 1009.5
20260504234602 59 298 5.0 15.0 0.00 0.00 0.00 57 1009.4
20260504233107 59 261 6.0 20.0 0.00 0.00 0.00 54 1009.1
20260504231608 60 198 4.0 17.0 0.00 0.00 0.00 54 1008.9
20260504230111 61 202 3.0 13.0 0.00 0.00 0.00 52 1008.7
20260504224604 62 173 5.0 11.0 0.00 0.00 0.00 50 1008.3
20260504223104 64 169 4.0 13.0 0.00 0.00 0.00 49 1008.2
20260504221609 64 197 7.0 17.0 0.00 0.00 0.00 49 1008.0
20260504220136 65 304 7.0 22.0 0.00 0.00 0.00 47 1008.0
20260504214555 66 311 4.0 18.0 0.00 0.00 0.00 46 1008.1
20260504213126 66 208 7.0 15.0 0.00 0.00 0.00 45 1007.9
20260504211608 67 225 6.0 19.0 0.00 0.00 0.00 43 1007.9
20260504210101 67 184 6.0 15.0 0.00 0.00 0.00 42 1007.7
20260504204609 68 194 6.0 16.0 0.00 0.00 0.00 40 1007.8
20260504203056 68 308 5.0 21.0 0.00 0.00 0.00 39 1007.5
20260504201609 68 225 8.0 14.0 0.00 0.00 0.00 39 1007.6
20260504200107 69 182 5.0 19.0 0.00 0.00 0.00 37 1007.6
20260504194555 69 150 6.0 18.0 0.00 0.00 0.00 37 1007.8
20260504193055 70 185 6.0 21.0 0.00 0.00 0.00 38 1007.4
20260504191555 69 315 7.0 19.0 0.00 0.00 0.00 38 1007.3
20260504190054 70 211 3.0 17.0 0.00 0.00 0.00 36 1007.8
20260504184600 70 260 6.0 19.0 0.00 0.00 0.00 34 1007.6
20260504183104 70 325 8.0 25.0 0.00 0.00 0.00 32 1007.6
20260504181559 70 321 8.0 20.0 0.00 0.00 0.00 32 1008.0
20260504180055 71 294 9.0 20.0 0.00 0.00 0.00 33 1007.9
20260504174556 69 234 6.0 14.0 0.00 0.00 0.00 34 1007.9
20260504173059 69 246 8.0 21.0 0.00 0.00 0.00 32 1007.7
20260504171557 69 308 6.0 18.0 0.00 0.00 0.00 35 1007.7
20260504140104 63 298 2.0 12.0 0.00 0.00 0.00 46 1010.3
20260504081555 42 0 1.0 3.0 0.00 0.00 0.00 79 1010.7